Location: Clarks Summit,Pa.
(41.5000°N, 75.6000°W)
Time: 09:14:17
(UTC-05:00)

Envisat - Pass Details

Date: 24 November 2018
Orbit: 764 x 766 km, 98.2° (Epoch: 13 December)

Event Time Altitude Azimuth Distance (km) Brightness Sun altitude
Rises 19:55:22 0° 200° (SSW) 3,218 6.4 -36.9°
Enters shadow 19:57:28 - 210° (SSW) 2,497 5.9 -37.3°
Exits shadow 20:01:29 23° 256° (WSW) 1,600 5.1 -38.1°
Maximum altitude 20:02:05 23° 267° (W) 1,581 5.1 -38.2°
Drops below altitude 10° 20:06:06 10° 319° (NW) 2,310 5.9 -38.9°
Sets 20:08:53 0° 334° (NNW) 3,241 6.6 -39.4°
